Weather reports worldwide

Advertisment
Llanes, Spain (8016): temperature & dewpoint: 09.12.2019 19:00:00 - 15.12.2019 19:00:00 (CET)Llanes, Spain (8016): wind speed & gusts: 09.12.2019 19:00:00 - 15.12.2019 19:00:00 (CET)Llanes, Spain (8016): wind direction: 09.12.2019 19:00:00 - 15.12.2019 19:00:00 (CET)Llanes, Spain (8016): reduced air pressure: 09.12.2019 19:00:00 - 15.12.2019 19:00:00 (CET)Llanes, Spain (8016): visibility: 09.12.2019 19:00:00 - 15.12.2019 19:00:00 (CET)Llanes, Spain (8016): sunshine duration: 09.12.2019 19:00:00 - 15.12.2019 19:00:00 (CET)Llanes, Spain (8016): precipitation: 09.12.2019 19:00:00 - 15.12.2019 19:00:00 (CET)
Date & Time tt [°C] td [°C] ff [km/h] ff [kn] fx [km/h] fx [kn] dd ppp [hPa] vv [km] sd [min] rr [mm]
15.12.2019 19:00:00 - - - - - - - - - - -
15.12.2019 18:00:00 11,2 9,2 6 4 17 9 S 1007,1 9 0 0,2
15.12.2019 17:00:00 11,3 9,2 6 3 13 7 SSW 1007,3 12 0 0,0
15.12.2019 16:00:00 11,5 9,4 6 3 10 5 S 1007,5 4,1 0 0,0
15.12.2019 15:00:00 11,4 9,4 3 2 18 10 NNW 1007,7 3,6 0 0,2
15.12.2019 14:00:00 11,8 9,7 10 6 35 19 NW 1008,7 1,8 0 1,2
15.12.2019 13:00:00 12,8 9,8 16 9 44 24 WNW 1008,8 6 2 -
15.12.2019 12:00:00 13,9 11,6 4 2 21 11 S 1008,3 6 3 0,0
15.12.2019 11:00:00 13,2 10,9 5 3 9 5 ESE 1008,8 2,7 0 0,2
15.12.2019 10:00:00 12,6 10,5 5 3 10 5 SW 1008,7 20 0 0,2
15.12.2019 09:00:00 12,7 10,4 4 2 8 4 SW 1008,6 1,5 0 0,6
15.12.2019 08:00:00 12,9 10,4 3 2 9 5 SSW 1008,3 1,3 0 1,0
15.12.2019 07:00:00 13,2 10,4 5 3 18 10 W 1008,4 2,9 0 -
15.12.2019 06:00:00 13,5 10,3 5 3 15 8 SW 1008,5 3,7 0 0,0
15.12.2019 05:00:00 13,9 10,3 13 7 28 15 NW 1008,8 8 0 0,0
15.12.2019 04:00:00 14,3 9,9 20 11 41 22 WNW 1008,7 10 0 0,0
15.12.2019 03:00:00 12,7 4,5 6 3 21 11 W 1006,9 20 0 0,0
15.12.2019 02:00:00 13,1 4,5 4 2 16 9 WSW 1006,9 20 0 0,0
15.12.2019 01:00:00 13,0 5,0 6 3 15 8 SSW 1007,1 20 0 -
15.12.2019 00:00:00 12,6 6,2 3 2 18 10 S 1007,2 7 0 0,0
14.12.2019 23:00:00 11,7 5,3 7 4 22 12 W 1007,6 20 0 0,0
14.12.2019 22:00:00 11,9 5,8 4 2 14 8 SW 1007,9 14 0 0,0
14.12.2019 21:00:00 12,3 5,5 1 1 14 8 SSE 1008,4 20 0 0,0
14.12.2019 20:00:00 12,2 6,7 3 2 17 9 SSW 1008,8 16 0 0,0
14.12.2019 19:00:00 13,2 7,1 5 3 11 6 SSW 1009,1 14 0 -
14.12.2019 18:00:00 13,9 8,8 5 3 10 6 SW 1009,9 8 0 0,0
14.12.2019 17:00:00 14,5 8,7 6 4 11 6 SSW 1009,8 10 0 0,0
14.12.2019 16:00:00 15,1 8,5 5 3 9 5 WNW 1010,0 12 0 0,0
14.12.2019 15:00:00 16,4 9,0 2 1 29 15 S 1009,9 8 45 0,0
14.12.2019 14:00:00 16,5 8,5 10 6 17 9 ESE 1010,8 10 45 0,0
14.12.2019 13:00:00 15,6 8,5 4 2 13 7 N 1012,0 9 47 -
14.12.2019 12:00:00 14,5 7,3 10 5 16 9 SW 1012,8 20 4 0,0
14.12.2019 11:00:00 14,3 7,6 3 2 10 6 S 1012,4 8 40 0,0
14.12.2019 10:00:00 13,2 7,8 2 1 8 4 NE 1012,6 1,9 1 0,0
14.12.2019 09:00:00 13,7 7,4 4 2 11 6 ESE 1012,1 3,3 0 0,0
14.12.2019 08:00:00 13,1 6,8 4 2 13 7 SE 1012,1 2,3 0 0,0
14.12.2019 07:00:00 12,1 7,4 4 2 10 5 ESE 1012,2 2,2 0 -
14.12.2019 06:00:00 11,3 5,8 3 2 11 6 SW 1012,1 12 0 0,0
14.12.2019 05:00:00 11,7 5,3 8 4 17 9 WSW 1012,0 20 0 0,0
14.12.2019 04:00:00 12,5 6,5 3 2 14 7 SSW 1012,2 6 0 0,0
14.12.2019 03:00:00 13,4 7,0 6 4 12 6 S 1011,7 4,9 0 0,0
14.12.2019 02:00:00 14,7 6,2 5 3 26 14 W 1011,6 15 0 0,0
14.12.2019 01:00:00 14,8 6,4 10 5 29 16 W 1011,7 20 0 -
14.12.2019 00:00:00 14,2 6,8 10 5 28 15 W 1011,7 20 0 0,0
13.12.2019 23:00:00 14,4 9,8 16 9 48 26 WNW 1011,9 6 0 0,0
13.12.2019 22:00:00 14,7 9,0 15 8 46 25 WNW 1011,8 18 0 0,0
13.12.2019 21:00:00 15,3 9,2 14 8 46 25 WNW 1012,1 11 0 0,0
13.12.2019 20:00:00 15,5 9,8 23 12 45 25 WNW 1011,5 17 0 0,0
13.12.2019 19:00:00 15,1 10,9 23 12 49 26 WNW 1011,1 17 0 -
13.12.2019 18:00:00 15,3 11,1 25 13 50 27 WNW 1010,9 10 0 0,0
13.12.2019 17:00:00 15,5 11,4 29 16 69 37 WNW 1010,4 9 0 0,0
13.12.2019 16:00:00 15,7 11,7 32 17 68 37 NW 1009,5 9 0 0,0
13.12.2019 15:00:00 16,4 11,8 32 17 60 32 NW 1010,0 9 37 0,0
13.12.2019 14:00:00 16,6 11,3 29 15 57 31 WNW 1010,1 10 30 0,0
13.12.2019 13:00:00 19,3 9,8 31 17 73 40 W 1010,5 20 49 -
13.12.2019 12:00:00 18,3 9,9 27 15 70 38 W 1011,1 20 5 0,0
13.12.2019 11:00:00 17,3 10,4 22 12 61 33 WNW 1011,5 20 0 0,0
13.12.2019 10:00:00 17,3 10,4 34 18 73 39 WNW 1010,3 20 0 0,0
13.12.2019 09:00:00 16,5 10,8 27 15 74 40 W 1009,5 20 0 0,0
13.12.2019 08:00:00 15,5 11,3 20 11 45 25 WNW 1008,8 11 0 0,2
13.12.2019 07:00:00 15,3 11,3 25 13 69 37 WNW 1007,7 6 0 -
13.12.2019 06:00:00 17,6 9,9 35 19 85 46 W 1006,0 20 0 0,0
13.12.2019 05:00:00 16,4 11,1 25 13 70 38 WNW 1006,1 20 0 0,2
13.12.2019 04:00:00 15,9 11,4 34 19 68 37 NW 1005,8 10 0 0,0
13.12.2019 03:00:00 17,5 10,6 31 17 82 44 WNW 1005,3 20 0 0,0
13.12.2019 02:00:00 16,6 11,3 33 18 68 37 W 1005,3 20 0 0,2
13.12.2019 01:00:00 15,6 11,8 26 14 57 31 WNW 1006,5 8 0 -
13.12.2019 00:00:00 14,6 12,1 20 11 48 26 WNW 1006,5 12 0 0,6
12.12.2019 23:00:00 14,9 12,0 25 13 51 27 WNW 1005,9 16 0 1,4
12.12.2019 22:00:00 14,7 11,9 23 13 49 26 WNW 1005,9 9 0 2,2
12.12.2019 21:00:00 14,9 11,4 24 13 52 28 WNW 1006,0 7 0 0,8
12.12.2019 20:00:00 14,7 11,4 23 12 46 25 W 1006,3 20 0 0,8
12.12.2019 19:00:00 14,1 11,4 25 14 58 31 W 1006,9 5 0 -
12.12.2019 18:00:00 14,1 10,9 25 13 55 30 W 1006,4 4,1 0 1,4
12.12.2019 17:00:00 14,4 10,4 25 14 65 35 W 1005,8 10 0 1,4
12.12.2019 16:00:00 14,5 9,6 25 14 64 35 W 1005,4 13 0 0,6
12.12.2019 15:00:00 14,6 8,8 23 12 76 41 W 1005,0 20 0 0,4
12.12.2019 14:00:00 14,1 7,8 23 12 74 40 W 1005,5 19 0 0,4
12.12.2019 13:00:00 14,1 6,4 26 14 68 37 W 1006,4 20 0 -
12.12.2019 12:00:00 13,8 5,6 18 10 49 27 W 1008,8 20 0 0,0
12.12.2019 11:00:00 12,6 6,4 13 7 37 20 NW 1010,7 7 0 0,0
12.12.2019 10:00:00 11,5 6,4 12 7 31 17 WNW 1012,4 20 0 0,2
12.12.2019 09:00:00 11,9 5,9 9 5 29 15 W 1013,9 20 0 0,0
12.12.2019 08:00:00 13,1 5,3 14 8 41 22 WNW 1014,1 20 0 0,0
12.12.2019 07:00:00 13,2 4,6 14 7 31 17 WNW 1014,2 20 0 -
12.12.2019 06:00:00 13,1 4,8 13 7 31 17 W 1015,4 20 0 0,2
12.12.2019 05:00:00 12,5 5,0 11 6 35 19 W 1016,6 20 0 0,0
12.12.2019 04:00:00 12,9 4,8 17 9 46 25 W 1017,8 20 0 0,0
12.12.2019 03:00:00 13,4 3,9 22 12 45 24 W 1018,6 20 0 0,0
12.12.2019 02:00:00 13,3 3,6 20 11 54 29 W 1019,5 20 0 0,0
12.12.2019 01:00:00 13,2 4,1 21 11 53 29 W 1020,2 20 0 -
12.12.2019 00:00:00 13,3 3,6 27 15 65 35 W 1020,5 20 0 0,0
11.12.2019 23:00:00 13,4 3,8 29 15 68 37 W 1020,8 20 0 0,0
11.12.2019 22:00:00 13,0 4,1 26 14 56 31 WNW 1021,3 20 0 0,0
11.12.2019 21:00:00 12,9 4,1 24 13 53 29 W 1021,7 20 0 0,0
11.12.2019 20:00:00 12,8 4,5 21 12 62 33 WNW 1022,3 20 0 0,0
11.12.2019 19:00:00 13,0 3,9 22 12 66 35 W 1022,1 20 0 -
11.12.2019 18:00:00 13,3 3,0 25 13 68 37 W 1021,6 20 0 0,0
11.12.2019 17:00:00 13,7 1,9 30 16 71 39 W 1021,0 20 0 0,0
11.12.2019 16:00:00 13,9 1,3 26 14 56 30 W 1021,0 20 0 0,0
11.12.2019 15:00:00 14,3 -0,3 26 14 55 30 W 1021,2 20 46 0,0
11.12.2019 14:00:00 13,5 0,2 27 15 54 29 W 1022,3 20 60 0,0
11.12.2019 13:00:00 12,8 2,1 21 11 55 30 W 1023,2 20 60 -
11.12.2019 12:00:00 12,1 3,6 22 12 54 29 W 1023,8 20 21 0,0
11.12.2019 11:00:00 11,4 4,8 21 11 42 23 W 1024,0 20 58 0,0
11.12.2019 10:00:00 10,3 5,3 17 9 38 20 W 1023,7 20 9 0,0
11.12.2019 09:00:00 9,6 6,1 13 7 52 28 W 1023,5 20 0 0,4
11.12.2019 08:00:00 9,7 7,1 16 9 39 21 W 1023,4 20 0 0,4
11.12.2019 07:00:00 10,0 7,6 23 12 48 26 WNW 1023,1 7 0 -
11.12.2019 06:00:00 10,6 8,4 12 6 34 19 WNW 1021,9 6 0 3,6
11.12.2019 05:00:00 11,1 8,5 24 13 54 29 WNW 1021,7 3,0 0 3,4
11.12.2019 04:00:00 13,2 8,9 13 7 27 14 WNW 1019,9 13 0 0,0
11.12.2019 03:00:00 12,0 4,3 11 6 21 12 W 1019,4 20 0 0,0
11.12.2019 02:00:00 11,3 4,1 3 2 11 6 SSW 1018,2 20 0 0,0
11.12.2019 01:00:00 11,9 3,9 3 2 14 7 WSW 1018,9 20 0 -
11.12.2019 00:00:00 11,3 2,7 9 5 17 9 WSW 1019,6 20 0 0,0
10.12.2019 23:00:00 11,4 2,7 6 4 14 7 WSW 1019,7 20 0 0,0
10.12.2019 22:00:00 10,8 4,3 5 3 11 6 SSW 1020,3 20 0 0,0
10.12.2019 21:00:00 11,0 5,5 5 3 10 5 W 1021,0 20 0 0,0
10.12.2019 20:00:00 11,6 7,6 2 1 10 5 W 1021,3 11 0 0,0
10.12.2019 19:00:00 12,5 8,4 5 3 10 5 SW 1022,0 7 0 -
10.12.2019 18:00:00 12,7 8,4 5 3 19 10 W 1022,4 5 0 0,0
10.12.2019 17:00:00 12,9 8,5 7 4 11 6 W 1022,5 7 0 0,0
10.12.2019 16:00:00 13,3 8,4 5 3 16 9 NW 1022,4 9 0 0,0
10.12.2019 15:00:00 13,5 8,4 5 3 8 5 E 1022,8 8 7 0,0
10.12.2019 14:00:00 13,6 8,4 3 2 13 7 E 1023,9 8 8 0,0
10.12.2019 13:00:00 13,0 7,8 8 4 13 7 E 1025,2 6 3 -
10.12.2019 12:00:00 12,1 6,8 3 1 10 5 WNW 1026,6 11 0 0,0
10.12.2019 11:00:00 10,7 5,6 6 3 20 11 WSW 1027,4 20 50 0,0
10.12.2019 10:00:00 8,4 4,6 6 3 11 6 WSW 1027,3 20 50 0,0
10.12.2019 09:00:00 7,1 3,6 8 5 19 10 SW 1027,8 19 0 0,0
10.12.2019 08:00:00 6,8 3,6 13 7 17 9 WSW 1027,9 20 0 0,0
10.12.2019 07:00:00 7,4 4,3 12 7 16 9 WSW 1028,3 19 0 -
10.12.2019 06:00:00 7,1 4,3 5 3 13 7 WSW 1028,9 9 0 0,0
10.12.2019 05:00:00 7,7 4,6 6 3 16 9 WSW 1029,3 17 0 0,0
10.12.2019 04:00:00 7,9 5,0 10 6 22 12 WSW 1030,4 12 0 0,0
10.12.2019 03:00:00 8,4 5,1 2 1 7 4 SSW 1030,8 9 0 0,0
10.12.2019 02:00:00 9,3 5,8 2 1 12 6 S 1031,6 3,2 0 0,0
10.12.2019 01:00:00 10,4 6,7 8 5 11 6 SW 1032,2 10 0 -
10.12.2019 00:00:00 10,5 6,8 6 4 16 9 SSW 1032,5 8 0 0,0
09.12.2019 23:00:00 10,1 5,6 2 1 13 7 SSW 1032,4 14 0 0,0
09.12.2019 22:00:00 10,7 5,8 5 3 10 5 WSW 1032,6 15 0 0,0
09.12.2019 21:00:00 11,7 6,2 4 2 13 7 W 1032,9 11 0 0,0
09.12.2019 20:00:00 12,5 7,0 9 5 19 10 W 1032,5 11 0 0,0
09.12.2019 19:00:00 12,9 7,7 9 5 17 9 W 1032,4 7 0 -

tt = temperature
td = dewpoint
ff = wind speed
fx = gusts
dd = wind direction
ppp = reduced air pressure
vv = visibility
sd = sunshine duration
rr = precipitation

Next stations